Location: Milano
(45.4670°N, 9.2000°E)
Time: 16:17:28
(UTC+01:00)

Envisat - Visible Passes

Search period start: 13 November 2019 00:00
Search period end: 23 November 2019 00:00
Orbit: 764 x 766 km, 98.1° (Epoch: 13 November)

Date Brightness Start Highest point End Pass type
(mag) Time Alt. Az. Time Alt. Az. Time Alt. Az.
13 Nov 6.4 05:47:18 10° ENE 05:48:42 11° E 05:50:06 10° ESE visible
13 Nov 3.6 18:40:07 10° S 18:45:07 59° W 18:50:10 10° NNW visible
14 Nov 4.6 06:46:48 10° NNE 06:51:37 40° E 06:56:22 10° SSE visible
14 Nov 2.9 18:03:19 10° SSE 18:08:21 66° ENE 18:13:24 10° N visible
14 Nov 5.8 19:44:40 10° SW 19:47:51 17° W 19:51:04 10° NW visible
15 Nov 5.9 06:10:54 10° NE 06:14:33 19° E 06:18:09 10° SE visible
15 Nov 3.7 17:27:19 10° SE 17:31:46 32° ENE 17:36:15 10° N visible
15 Nov 4.6 19:06:08 10° SSW 19:10:44 35° W 19:15:23 10° NNW visible
16 Nov 3.2 18:28:46 10° S 18:33:49 74° WSW 18:38:56 10° NNW visible
17 Nov 5.1 06:35:42 10° NNE 06:40:16 32° E 06:44:48 10° SSE visible
17 Nov 3.1 17:52:12 10° SSE 17:57:07 53° ENE 18:02:04 10° N visible
17 Nov 5.5 19:32:41 10° SW 19:36:27 21° W 19:40:15 10° NW visible
18 Nov 6.1 06:00:09 10° NE 06:03:08 16° E 06:06:07 10° SE visible
18 Nov 3.9 17:16:26 10° ESE 17:20:36 26° ENE 17:24:48 10° N visible
18 Nov 4.2 18:54:35 10° S 18:59:24 43° W 19:04:16 10° NNW visible
19 Nov 2.9 18:17:28 10° SSE 18:22:33 89° ENE 18:27:40 10° NNW visible
19 Nov 6.1 20:00:23 10° WSW 20:02:17 12° W 20:04:10 10° WNW visible
20 Nov 5.4 06:24:39 10° NE 06:28:54 26° E 06:33:08 10° SSE visible
20 Nov 3.3 17:41:08 10° SE 17:45:54 43° ENE 17:50:41 10° N visible
20 Nov 5.1 19:20:53 10° SSW 19:25:04 26° W 19:29:18 10° NW visible
21 Nov 6.2 05:49:42 10° ENE 05:51:43 12° E 05:53:43 10° ESE visible
21 Nov 3.7 18:43:07 10° S 18:48:05 54° W 18:53:05 10° NNW visible
22 Nov 4.4 06:49:42 10° NNE 06:54:35 44° E 06:59:25 10° S visible
22 Nov 2.9 18:06:15 10° SSE 18:11:17 72° ENE 18:16:22 10° N visible
22 Nov 5.9 19:47:56 10° SW 19:50:51 15° W 19:53:47 10° NW visible
